When you browse on this site, cookies collect data to enhance your experience and personalize the content and advertising you see.
Visit our Privacy Policy to learn more. By continuing to use the site, you agree to this use of cookies and data.
  • în România
  • Lista ţărilor
  • Pe 7 zile
  • Temperatura apei
  • Meteo pe hartă
  • Widget-uri
  • user-avatar
    Intrare

    Meteo pe oră la Lisburn

    Astăzi, 11 Noiembrie, Luni

    Timp Temperatura Precipitaţii Vânt Presiune Umiditate
    00:00 +4°C° 0 mm 6 m/s 744 mmHg 88%
    01:00 +4°C° 0 mm 6 m/s 744 mmHg 87%
    02:00 +4°C° 0 mm 7 m/s 744 mmHg 86%
    03:00 +3°C° 0 mm 7 m/s 744 mmHg 85%
    04:00 +3°C° 0 mm 7 m/s 744 mmHg 85%
    05:00 +3°C° 0 mm 7 m/s 745 mmHg 84%
    06:00 +2°C° 0 mm 8 m/s 744 mmHg 85%
    07:00 +2°C° 0 mm 8 m/s 744 mmHg 84%
    08:00 +2°C° 0 mm 8 m/s 744 mmHg 83%
    09:00 +2°C° 0 mm 8 m/s 744 mmHg 82%
    10:00 +3°C° 0.1 mm 9 m/s 744 mmHg 81%
    11:00 +5°C° 0.1 mm 9 m/s 744 mmHg 79%
    12:00 +5°C° 0 mm 8 m/s 744 mmHg 77%
    13:00 +5°C° 0 mm 8 m/s 744 mmHg 77%
    14:00 +5°C° 0 mm 9 m/s 744 mmHg 77%
    15:00 +5°C° 0 mm 9 m/s 744 mmHg 76%
    16:00 +4°C° 0 mm 8 m/s 744 mmHg 77%
    17:00 +2°C° 0 mm 8 m/s 745 mmHg 78%
    18:00 +2°C° 0 mm 8 m/s 745 mmHg 79%
    19:00 +1°C° 0 mm 8 m/s 744 mmHg 78%
    20:00 +1°C° 0 mm 8 m/s 744 mmHg 78%
    21:00 +1°C° 0 mm 8 m/s 744 mmHg 77%
    22:00 +1°C° 0 mm 8 m/s 744 mmHg 76%
    23:00 +1°C° 0 mm 9 m/s 744 mmHg 75%

    Mâine, 12 Noiembrie, Marţi

    Timp Temperatura Precipitaţii Vânt Presiune Umiditate
    00:00 +1°C° 0 mm 9 m/s 744 mmHg 75%
    01:00 +2°C° 0 mm 10 m/s 743 mmHg 74%
    02:00 +2°C° 0 mm 10 m/s 743 mmHg 73%
    03:00 +2°C° 0 mm 11 m/s 742 mmHg 73%
    04:00 +2°C° 1.1 mm 12 m/s 742 mmHg 78%
    05:00 +3°C° 1.1 mm 12 m/s 742 mmHg 84%
    06:00 +3°C° 1.1 mm 12 m/s 742 mmHg 90%
    07:00 +3°C° 0.6 mm 11 m/s 743 mmHg 89%
    08:00 +4°C° 0.6 mm 11 m/s 743 mmHg 87%
    09:00 +5°C° 0.6 mm 10 m/s 744 mmHg 86%
    10:00 +5°C° 0.1 mm 10 m/s 744 mmHg 84%
    11:00 +6°C° 0.1 mm 10 m/s 745 mmHg 82%
    12:00 +6°C° 0.1 mm 9 m/s 746 mmHg 80%
    13:00 +6°C° 0 mm 9 m/s 746 mmHg 80%
    14:00 +5°C° 0 mm 8 m/s 746 mmHg 79%
    15:00 +5°C° 0 mm 7 m/s 746 mmHg 79%
    16:00 +4°C° 0 mm 7 m/s 747 mmHg 81%
    17:00 +4°C° 0 mm 6 m/s 747 mmHg 84%
    18:00 +3°C° 0 mm 6 m/s 747 mmHg 86%
    19:00 +3°C° 0 mm 5 m/s 747 mmHg 87%
    20:00 +3°C° 0 mm 5 m/s 748 mmHg 87%
    21:00 +2°C° 0 mm 5 m/s 748 mmHg 88%
    22:00 +3°C° 0 mm 4 m/s 748 mmHg 89%
    23:00 +1°C° 0 mm 4 m/s 748 mmHg 90%

    Poimâine, 13 Noiembrie, Miercuri

    Timp Temperatura Precipitaţii Vânt Presiune Umiditate
    00:00 +2°C° 0 mm 3 m/s 747 mmHg 91%
    01:00 +2°C° 0 mm 3 m/s 747 mmHg 90%
    02:00 +1°C° 0 mm 4 m/s 747 mmHg 89%
    03:00 +1°C° 0 mm 4 m/s 746 mmHg 88%
    04:00 +2°C° 0 mm 3 m/s 746 mmHg 89%
    05:00 +2°C° 0 mm 3 m/s 746 mmHg 90%
    06:00 +1°C° 0 mm 3 m/s 745 mmHg 90%
    07:00 +2°C° 0 mm 3 m/s 745 mmHg 90%
    08:00 +3°C° 0 mm 2 m/s 744 mmHg 90%
    09:00 +3°C° 0 mm 2 m/s 743 mmHg 90%
    10:00 +4°C° 0 mm 2 m/s 742 mmHg 87%
    11:00 +5°C° 0 mm 2 m/s 742 mmHg 83%
    12:00 +4°C° 0 mm 3 m/s 741 mmHg 80%
    13:00 +4°C° 0 mm 3 m/s 740 mmHg 80%
    14:00 +5°C° 0 mm 3 m/s 740 mmHg 79%
    15:00 +5°C° 0 mm 3 m/s 739 mmHg 79%
    16:00 +5°C° 0 mm 4 m/s 739 mmHg 79%
    17:00 +3°C° 0 mm 5 m/s 739 mmHg 80%
    18:00 +3°C° 0 mm 7 m/s 738 mmHg 80%
    19:00 +3°C° 0.1 mm 7 m/s 739 mmHg 81%
    20:00 +3°C° 0.1 mm 7 m/s 740 mmHg 83%
    21:00 +3°C° 0.1 mm 7 m/s 740 mmHg 85%
    22:00 +2°C° 0.1 mm 7 m/s 741 mmHg 85%
    23:00 +2°C° 0.1 mm 7 m/s 742 mmHg 86%

    14 Noiembrie, Joi

    Timp Temperatura Precipitaţii Vânt Presiune Umiditate
    00:00 +2°C° 0.1 mm 7 m/s 743 mmHg 87%
    01:00 +2°C° 0 mm 6 m/s 744 mmHg 86%
    02:00 +2°C° 0 mm 6 m/s 744 mmHg 84%
    03:00 +1°C° 0 mm 6 m/s 745 mmHg 82%
    04:00 +1°C° 0 mm 6 m/s 746 mmHg 81%
    05:00 +1°C° 0 mm 6 m/s 746 mmHg 80%
    06:00 0°C° 0 mm 5 m/s 747 mmHg 79%
    07:00 +1°C° 0 mm 5 m/s 748 mmHg 79%
    08:00 +1°C° 0 mm 6 m/s 748 mmHg 78%
    09:00 +1°C° 0 mm 6 m/s 749 mmHg 78%
    10:00 +2°C° 0 mm 7 m/s 749 mmHg 76%
    11:00 +2°C° 0 mm 8 m/s 750 mmHg 74%
    12:00 +4°C° 0 mm 8 m/s 750 mmHg 72%
    13:00 +4°C° 0.1 mm 8 m/s 751 mmHg 74%
    14:00 +4°C° 0.1 mm 8 m/s 751 mmHg 75%
    15:00 +4°C° 0.1 mm 7 m/s 751 mmHg 77%
    16:00 +3°C° 0 mm 7 m/s 752 mmHg 79%
    17:00 +3°C° 0 mm 7 m/s 752 mmHg 81%
    18:00 +3°C° 0 mm 7 m/s 753 mmHg 83%
    19:00 +3°C° 0.1 mm 7 m/s 753 mmHg 83%
    20:00 +4°C° 0.1 mm 8 m/s 754 mmHg 82%
    21:00 +4°C° 0.1 mm 8 m/s 754 mmHg 82%
    22:00 +4°C° 0.2 mm 8 m/s 755 mmHg 82%
    23:00 +4°C° 0.2 mm 8 m/s 756 mmHg 83%

    15 Noiembrie, Vineri

    Timp Temperatura Precipitaţii Vânt Presiune Umiditate
    00:00 +4°C° 0.2 mm 8 m/s 756 mmHg 83%
    01:00 +4°C° 0.3 mm 8 m/s 757 mmHg 84%
    02:00 +4°C° 0.3 mm 8 m/s 757 mmHg 84%
    03:00 +4°C° 0.3 mm 8 m/s 757 mmHg 85%
    04:00 +4°C° 0 mm 8 m/s 758 mmHg 85%
    05:00 +3°C° 0 mm 7 m/s 758 mmHg 84%
    06:00 +3°C° 0 mm 7 m/s 759 mmHg 84%
    07:00 +3°C° 0 mm 6 m/s 759 mmHg 84%
    08:00 +3°C° 0 mm 6 m/s 760 mmHg 84%
    09:00 +3°C° 0 mm 5 m/s 760 mmHg 84%
    10:00 +3°C° 0 mm 6 m/s 760 mmHg 82%
    11:00 +4°C° 0 mm 6 m/s 760 mmHg 79%
    12:00 +5°C° 0 mm 6 m/s 760 mmHg 76%
    13:00 +5°C° 0 mm 5 m/s 760 mmHg 77%
    14:00 +5°C° 0 mm 5 m/s 760 mmHg 78%
    15:00 +5°C° 0 mm 4 m/s 759 mmHg 79%
    16:00 +4°C° 0 mm 4 m/s 759 mmHg 81%
    17:00 +3°C° 0 mm 4 m/s 759 mmHg 84%
    18:00 +2°C° 0 mm 3 m/s 759 mmHg 86%
    19:00 +2°C° 0 mm 3 m/s 759 mmHg 86%
    20:00 +2°C° 0 mm 3 m/s 759 mmHg 86%
    21:00 +1°C° 0 mm 3 m/s 759 mmHg 86%
    22:00 +1°C° 0 mm 3 m/s 759 mmHg 86%
    23:00 +1°C° 0 mm 3 m/s 758 mmHg 87%

    16 Noiembrie, Sâmbătă

    Timp Temperatura Precipitaţii Vânt Presiune Umiditate
    00:00 +1°C° 0 mm 3 m/s 758 mmHg 87%
    01:00 +1°C° 0 mm 3 m/s 758 mmHg 88%
    02:00 +1°C° 0 mm 3 m/s 757 mmHg 88%
    03:00 +1°C° 0 mm 3 m/s 757 mmHg 89%
    04:00 +2°C° 0 mm 2 m/s 757 mmHg 90%
    05:00 +2°C° 0 mm 2 m/s 756 mmHg 90%
    06:00 +2°C° 0 mm 2 m/s 756 mmHg 91%
    07:00 +2°C° 0 mm 2 m/s 756 mmHg 91%
    08:00 +3°C° 0 mm 2 m/s 756 mmHg 91%
    09:00 +3°C° 0 mm 2 m/s 756 mmHg 91%
    10:00 +4°C° 0 mm 2 m/s 755 mmHg 88%
    11:00 +5°C° 0 mm 2 m/s 755 mmHg 84%
    12:00 +6°C° 0 mm 2 m/s 755 mmHg 81%
    13:00 +7°C° 0 mm 1 m/s 754 mmHg 82%
    14:00 +7°C° 0 mm 1 m/s 754 mmHg 83%
    15:00 +7°C° 0 mm 1 m/s 753 mmHg 85%
    16:00 +6°C° 0 mm 1 m/s 753 mmHg 86%
    17:00 +6°C° 0 mm 1 m/s 753 mmHg 88%
    18:00 +5°C° 0 mm 1 m/s 753 mmHg 89%
    19:00 +5°C° 0 mm 1 m/s 754 mmHg 90%
    20:00 +5°C° 0 mm 1 m/s 754 mmHg 90%
    21:00 +4°C° 0 mm 2 m/s 754 mmHg 90%
    22:00 +4°C° 0 mm 2 m/s 754 mmHg 90%
    23:00 +4°C° 0 mm 2 m/s 754 mmHg 91%
    Arată mai mult